Location: Milo
(50.5667°N, 112.8833°W)
Time: 08:15:11
(UTC+00:00)

N. Korean satellite - Pass Details

Date: 07 December 2021
Orbit: 446 x 491 km, 97.3° (Epoch: 18 January)

Event Time Altitude Azimuth Distance (km) Brightness Sun altitude
Rises 14:15:49 0° 356° (N) 2,469 9.9 -9.4°
Reaches altitude 10° 14:18:45 10° 327° (NNW) 1,586 8.7 -9.0°
Maximum altitude 14:20:20 13° 299° (WNW) 1,415 8.2 -8.8°
Drops below altitude 10° 14:21:55 10° 271° (W) 1,579 8.6 -8.6°
Sets 14:24:49 0° 242° (WSW) 2,446 9.8 -8.2°
